Baltimore, MD

3:13 AM EDT on April 30, 2017 (GMT -0400)
Baltimore-Washington International

Weather History for KBWI - November, 2011

Change the Weather History Date:

Sunday, November 27, 2011

  Actual Average Record
Temperature  
Mean Temperature 54 °F 42 °F  
Max Temperature 71 °F 52 °F 74 °F (1896)
Min Temperature 36 °F 33 °F 18 °F (1974)
Degree Days  
Heating Degree Days 11 23  
Month to date heating degree days 391 488  
Since 1 July heating degree days 679 835  
Cooling Degree Days 0 0  
Month to date cooling degree days 0 0  
Year to date cooling degree days 1558 1163  
Growing Degree Days 4 (Base 50)    
Moisture  
Dew Point 45 °F    
Average Humidity 70    
Maximum Humidity 92    
Minimum Humidity 47    
Precipitation  
Precipitation 0.00 in 0.11 in 1.99 in (1944)
Month to date precipitation 2.04 2.95  
Year to date precipitation 51.61 38.16  
Snow  
Snow 0.00 in 0.00 in 3.50 in (1978)
Month to date snowfall 0.0 0.3  
Since 1 July snowfall T 0.3  
Snow Depth 0.00 in    
Sea Level Pressure  
Sea Level Pressure 30.11 in    
Wind  
Wind Speed 4 mph (South)    
Max Wind Speed 18 mph    
Max Gust Speed 28 mph    
Visibility 10 miles    
Events      
T = Trace of Precipitation, MM = Missing Value Source: NWS Daily Summary

Daily Weather History Graph

Daily Weather History Graph

Search for Another Location

Airport or City:

Trip Planner

Search our weather history database for the weather conditions in past years. The results will help you decide how hot, cold, wet, or windy it might be!

Date:

Astronomy

Nov. 27, 2011 Rise Set
Actual Time 7:02 AM EST 4:45 PM EST
Civil Twilight 6:33 AM EST 5:14 PM EST
Nautical Twilight 6:00 AM EST 5:47 PM EST
Astronomical Twilight 5:28 AM EST 6:19 PM EST
Moon 9:25 AM EST (11/27) 7:21 PM EST (11/27)
Length of Visible Light 10h 41m
Length of Day
9h 42m
Waxing Crescent, 8% of the Moon is Illuminated
Nov 27
Waxing Crescent
Dec 2
First Quarter
Dec 10
Full
Dec 17
Last Quarter
Dec 24
New

Hourly Weather History & Observations

Time (EST) Temp. Dew Point Humidity Pressure Visibility Wind Dir Wind Speed Gust Speed Precip Events Conditions
12:54 AM 42.1 °F 37.0 °F 82% 30.16 in 10.0 mi Calm Calm - N/A   Scattered Clouds
1:54 AM 39.9 °F 37.0 °F 89% 30.16 in 10.0 mi Calm Calm - N/A   Scattered Clouds
2:54 AM 41.0 °F 37.0 °F 86% 30.15 in 10.0 mi Calm Calm - N/A   Scattered Clouds
3:54 AM 39.9 °F 37.0 °F 89% 30.14 in 10.0 mi Calm Calm - N/A   Scattered Clouds
4:54 AM 37.9 °F 36.0 °F 93% 30.14 in 10.0 mi Calm Calm - N/A   Partly Cloudy
5:54 AM 39.2 °F 35.6 °F 87% 30.13 in 10.0 mi Calm Calm - N/A   Scattered Clouds
6:54 AM 37.9 °F 35.1 °F 89% 30.14 in 10.0 mi Calm Calm - N/A   Mostly Cloudy
7:54 AM 42.1 °F 37.9 °F 85% 30.15 in 9.0 mi Calm Calm - N/A   Mostly Cloudy
8:54 AM 48.0 °F 43.0 °F 83% 30.16 in 9.0 mi Calm Calm - N/A   Mostly Cloudy
9:54 AM 57.2 °F 46.4 °F 67% 30.16 in 10.0 mi Calm Calm - N/A   Mostly Cloudy
10:54 AM 64.9 °F 48.9 °F 56% 30.14 in 10.0 mi SSW 13.8 mph 23.0 mph N/A   Mostly Cloudy
11:54 AM 66.2 °F 48.2 °F 52% 30.12 in 10.0 mi SW 11.5 mph - N/A   Mostly Cloudy
12:54 PM 66.0 °F 48.9 °F 54% 30.09 in 10.0 mi SW 13.8 mph 20.7 mph N/A   Mostly Cloudy
1:54 PM 66.2 °F 48.2 °F 52% 30.08 in 10.0 mi SW 11.5 mph 16.1 mph N/A   Mostly Cloudy
2:54 PM 70.0 °F 48.9 °F 47% 30.06 in 10.0 mi SW 6.9 mph - N/A   Mostly Cloudy
3:54 PM 64.9 °F 50.0 °F 58% 30.07 in 10.0 mi ESE 8.1 mph - N/A   Mostly Cloudy
4:54 PM 61.0 °F 50.0 °F 67% 30.08 in 10.0 mi SE 5.8 mph - N/A   Mostly Cloudy
5:54 PM 59.0 °F 51.1 °F 75% 30.08 in 10.0 mi SE 5.8 mph - N/A   Mostly Cloudy
6:54 PM 57.9 °F 50.0 °F 75% 30.08 in 10.0 mi SSE 3.5 mph - N/A   Mostly Cloudy
7:54 PM 57.9 °F 50.0 °F 75% 30.09 in 10.0 mi SSE 3.5 mph - N/A   Mostly Cloudy
8:54 PM 57.9 °F 50.0 °F 75% 30.09 in 10.0 mi Calm Calm - N/A   Mostly Cloudy
9:54 PM 57.0 °F 50.0 °F 77% 30.08 in 10.0 mi SE 3.5 mph - N/A   Mostly Cloudy
10:54 PM 59.0 °F 50.0 °F 72% 30.08 in 10.0 mi South 4.6 mph - N/A   Mostly Cloudy
11:54 PM 57.9 °F 50.0 °F 75% 30.08 in 10.0 mi SSE 3.5 mph - N/A   Mostly Cloudy